Location: Altoona
(40.5167°N, 78.4000°W)
Time: 13:25:08
(UTC-05:00)

Meteor 1-29 - Pass Details

Date: 21 August 2017
Orbit: 445 x 466 km, 97.7° (Epoch: 24 November)

Event Time Altitude Azimuth Distance (km) Brightness Sun altitude
Rises 21:49:51 0° 12° (NNE) 2,476 7.0 -19.2°
Reaches altitude 10° 21:51:54 10° 12° (NNE) 1,594 6.0 -19.5°
Maximum altitude 21:55:19 89° 287° (WNW) 456 2.8 -20.1°
Enters shadow 21:55:46 65° 196° (SSW) 500 2.9 -20.1°
